Flag for Canada Weather past 2 weeks in Victoria, British Columbia, Canada

Now
52 °F

Thunderstorms. Mostly cloudy.


Feels Like: 46 °F
Forecast: 46 / 52 °F
Wind: 21 mph from West

Location: Victoria Int. Airportb. C.

Current Time: Mar 31, 2015 at 3:33:43 PM

Latest Report: Mar 31, 2015 at 2:45 PM


Visibility: 20 mi

Pressure: 30.07 "Hg

Humidity: 54%

Dew point: 36 °F

Location of VictoriaLocation

Historic Weather in Victoria — Graph

°F

Victoria temperature yesterday

Maximum temperature yesterday: 59 °F (at 4:00 PM)
Minimum temperature yesterday: 48 °F (at 4:00 AM)
Average temperature yesterday: 53 °F

Past Weeks' High & Low Weather Summary

 TemperatureHumidityPressure
High59 °F (Mar 26, 1:00 PM)100% (Mar 18, 3:00 AM)30.31 "Hg (Mar 18, 3:00 AM)
Low36 °F (Mar 24, 7:03 AM)41% (Mar 16, 5:00 PM)29.76 "Hg (Mar 30, 11:00 PM)
Average49 °F85%30.06 "Hg
* Reported Mar 16 1:00 PM — Mar 31 1:00 PM, Victoria, Weather by CustomWeather, © 2015

Note: Actual official high and low records may vary slightly from our data, if they occured in-between our weather recording intervals... More about our weather records

Advertising

Victoria weather history for previous 24 hours

 ConditionsComfort  
Time TempWeatherWind HumidityBarometerVisibility
1:00 PM
Tue, Mar 31
55 °FPartly sunny.12 mph47%30.05 "Hg20 mi
12:00 PM54 °FBroken clouds.10 mph54%30.04 "Hg20 mi
11:00 AM52 °FPartly sunny.7 mph58%30.03 "Hg20 mi
10:00 AM50 °FPartly sunny.7 mph62%30.01 "Hg20 mi
9:00 AM46 °FPassing clouds.14 mph71%29.99 "Hg20 mi
8:00 AM46 °FScattered clouds.10 mph76%29.98 "Hg20 mi
7:00 AM41 °FPassing clouds.5 mph87%29.96 "Hg30 mi
6:00 AM45 °FPassing clouds.7 mph76%29.94 "Hg30 mi
5:00 AM45 °FPassing clouds.8 mph76%29.91 "Hg30 mi
4:00 AM48 °FPassing clouds.16 mph71%29.87 "Hg15 mi
3:00 AM46 °FPassing clouds.16 mph82%29.85 "Hg15 mi
2:00 AM48 °FMostly cloudy.13 mph82%29.81 "Hg15 mi
1:52 AM48 °FMostly cloudy.10 mph82%29.80 "Hg15 mi
1:00 AM48 °FLight rain. Mostly cloudy.12 mph87%29.78 "Hg15 mi
12:00 AM52 °FLight rain. Overcast.6 mph94%29.77 "Hg20 mi
11:00 PM
Mon, Mar 30
52 °FMostly cloudy.3 mph88%29.76 "Hg20 mi
10:00 PM52 °FPassing clouds.8 mph88%29.78 "Hg20 mi
9:00 PM52 °FPassing clouds.6 mph88%29.79 "Hg20 mi
8:00 PM54 °FMore clouds than sun.2 mph82%29.81 "Hg20 mi
7:00 PM57 °FBroken clouds.2 mph72%29.83 "Hg20 mi
6:00 PM59 °FPartly sunny.6 mph68%29.84 "Hg20 mi
5:00 PM59 °FPartly sunny.9 mph68%29.87 "Hg20 mi
4:00 PM59 °FBroken clouds.13 mph68%29.90 "Hg20 mi
3:00 PM57 °FPartly sunny.10 mph77%29.93 "Hg20 mi
Weather by CustomWeather, © 2015

See weather overviewHow to use our weather pages